COSMOS 2251 DEB

Satellite information

Favourite Embed

Satellite Type and Status

DEBRISIN ORBIT

Key statistics

Satellite COSMOS 2251 DEB at a glance.

Uptime

11769

Days in orbit

Revolutions

≈ 14.2

Per day

Orbit

LEO

Low Earth Orbit

Inclination

74.0

Latest

Satellite identification and parameters

Extended collection of information and parameters for COSMOS 2251 DEB.

Object identification

Identified? True

Debris? True

Object name: COSMOS 2251 DEB

International designator: 1993-036WT

Object number (NORAD): 34622

Object ID (CCSDS): 34622

Country: COMMONWEALTH OF INDEPENDENT STATES (CIS)

Current information (Y/N): Y

RCS size: SMALL

Orbital parameters

Period: 101.312 minutes

Inclination: 74.0416 deg

SMA: 7198.899 km

Apoapsis: 898.844 km

Periapsis: 742.685 km

RAAN: 131.0427 deg

Eccentricy: 0.01084607

Argument of periapsis: 239.0572 deg

Mean anomaly: 273.5888 deg

Mean motion: 14.21358434 rev/day

Mean motion (dot): 0.00002094 rev/day2

B* drag term: 0.00091477255 1/REarth

Two-line elements (TLE)

Creation date: Sept. 1, 2025, 10:16 a.m.

Reference frame: TEME

Reference center: EARTH

Epoch: Sept. 1, 2025, 2:47 a.m. UTC

TLE line 0: 0 COSMOS 2251 DEB

TLE line 1: 1 34622U 93036WT 25244.11600889 .00002094 00000-0 91477-3 0 9994

TLE line 2: 2 34622 74.0416 131.0427 0108461 239.0572 273.5888 14.21358434850017

Live tracking on map

Real-time ground track for satellite COSMOS 2251 DEB.

In-orbit conjunctions

A list of the most updated potential collisions computed for object COSMOS 2251 DEB.

Target Orbit TCA Probability of collision Miss distance Type
CZ-6A DEB LEO 2025-02-04 03:16:46 0.0001484301 780.0 (m) DEBRIS
SL-14 DEB LEO 2024-12-20 12:59:58 0.0001018806 333.0 (m) DEBRIS
FENGYUN 1C DEB SSO 2024-09-26 20:49:09 0.0002105057 173.0 (m) DEBRIS
SL-8 R/B LEO 2024-06-23 20:39:03 0.009974697 39.0 (m) ROCKET BODY
FENGYUN 1C DEB SSO 2024-06-06 05:08:19 0.0007391593 49.0 (m) DEBRIS

Associated space launch

Military communications satellite. Destroyed in a collision with Iridium 33.

COSMOS 2251 DEB was lifted into orbit during the mission ‘Kosmos-3M | Strela-2M 51’, on board a Kosmos-3M space rocket.

The launch took place on June 16, 1993, 4:17 a.m. from 132/1 (132L).

For more information about the launch, click the button.

Launch to space Kosmos-3M | Strela-2M 51
Kosmos-3M | Strela-2M 51

Agency: N/A

Status: Launch Successful

Launch date: June 16, 1993, 4:17 a.m. UTC

Rocket: Kosmos-3M

Launch pad: 132/1 (132L)

Location: Plesetsk Cosmodrome, Russian Federation

...

Latest news about this satellite

There are no fresh news available about this satellite. Check back as we update our databases every day.


Newsletter sign-up

Weekly statistics, charts and insights to help you stay on top of the space industry.